Home > Weather > Rajgarh > Past weeks

Flag for India Weather for the Past 2 Weeks in Rajgarh, Madhya Pradesh, India

Now
57 °F

Clear.


Feels Like: 56 °F
Forecast: 56 / 82 °F
Wind: 7 mph from Northwest

Location: Ahmadabad Airport

Current Time: Feb 10, 2016 at 8:36:10 AM

Latest Report: Feb 10, 2016 at 8:00 AM


Visibility: 1 mi

Pressure: 29.95 "Hg (28.21 "Hg at 503m altitude)

Humidity: 67%

Dew point: 46 °F

Location of RajgarhLocation

Historic Weather in Rajgarh — Graph

°F

Rajgarh Temperature Yesterday

Maximum temperature yesterday: 90 °F (at 3:00 PM)
Minimum temperature yesterday: 55 °F (at 2:30 AM)
Average temperature yesterday: 70 °F

High & Low Weather Summary for the Past Weeks

 TemperatureHumidityPressure
High93 °F (Jan 29, 2:30 PM)88% (Jan 27, 7:00 AM)30.09 "Hg (Jan 27, 7:00 AM)
Low50 °F (Jan 26, 6:30 AM)13% (Feb 8, 5:00 PM)29.77 "Hg (Feb 6, 4:00 PM)
Average71 °F48%29.97 "Hg
* Reported Jan 26 6:30 AM — Feb 10 7:00 AM, Rajgarh, Weather by CustomWeather, © 2016

Note: Actual official high and low records may vary slightly from our data, if they occured in-between our weather recording intervals... More about our weather records

Advertising

Rajgarh Weather History for the Previous 24 Hours

 ConditionsComfort  
Time TempWeatherWind HumidityBarometerVisibility
7:00 AM
Wed, Feb 10
57 °FClear.No wind55%29.89 "Hg2 mi
6:00 AM55 °FClear.No wind63%29.86 "Hg2 mi
5:30 AM55 °FClear.No wind63%29.86 "Hg2 mi
5:00 AM59 °FClear.No wind51%29.86 "Hg2 mi
4:30 AM59 °FClear.No wind51%29.86 "Hg2 mi
4:00 AM59 °FClear.No wind55%29.86 "Hg2 mi
3:00 AM61 °FClear.3 mph52%29.86 "Hg2 mi
2:30 AM63 °FClear.3 mph45%29.86 "Hg2 mi
2:00 AM63 °FClear.3 mph45%29.86 "Hg2 mi
1:30 AM63 °FClear.No wind45%29.89 "Hg2 mi
1:00 AM63 °FClear.No wind32%29.89 "Hg2 mi
12:30 AM63 °FClear.No wind49%29.89 "Hg2 mi
12:00 AM64 °FClear.No wind49%29.89 "Hg2 mi
11:30 PM
Tue, Feb 9
66 °FClear.3 mph43%29.89 "Hg2 mi
11:00 PM66 °FClear.3 mph43%29.89 "Hg2 mi
10:30 PM68 °FClear.3 mph43%29.89 "Hg2 mi
10:00 PM70 °FClear.3 mph40%29.89 "Hg2 mi
9:30 PM70 °FClear.3 mph40%29.89 "Hg2 mi
9:00 PM72 °FClear.3 mph38%29.89 "Hg2 mi
8:30 PM73 °FClear.3 mph38%29.89 "Hg2 mi
8:00 PM73 °FClear.3 mph38%29.86 "Hg2 mi
7:00 PM77 °FClear.No wind34%29.86 "Hg2 mi
6:30 PM81 °FClear.5 mph32%29.83 "Hg2 mi
6:00 PM84 °FClear.5 mph29%29.83 "Hg2 mi
5:00 PM88 °FClear.7 mph24%29.83 "Hg3 mi
4:00 PM88 °FClear.6 mph24%29.83 "Hg3 mi
3:30 PM88 °FClear.7 mph22%29.83 "Hg3 mi
3:00 PM90 °FClear.7 mph22%29.86 "Hg3 mi
2:00 PM88 °FClear.7 mph24%29.89 "Hg3 mi
1:30 PM84 °FClear.7 mph29%29.92 "Hg3 mi
1:00 PM84 °FClear.8 mph29%29.95 "Hg3 mi
12:30 PM82 °FClear.8 mph30%29.95 "Hg3 mi
12:00 PM82 °FClear.5 mph28%29.98 "Hg3 mi
11:30 AM79 °FClear.7 mph30%29.98 "Hg3 mi
11:00 AM77 °FClear.7 mph32%30.01 "Hg3 mi
10:00 AM72 °FClear.9 mph36%30.01 "Hg2 mi
9:30 AM68 °FClear.8 mph38%30.01 "Hg2 mi
9:00 AM64 °FClear.9 mph43%30.01 "Hg2 mi
8:00 AM61 °FClear.7 mph42%29.98 "Hg2 mi
Weather by CustomWeather, © 2016

See weather overviewHow to use our weather pages